This demonstration page uses our WeatherBlox Daily Observations layout. Learn more.

Left ArrowRight Arrow

Hourly Observations for September 25, 2022

Temp ( °F °C ) Dew Point ( °F °C ) Humidity (%) Winds ( mph kmh ) Pressure ( in mb ) Visibility ( mi km ) Precip ( " mm )
12:56 am 00:56 Clear 55 12.8 45 7.2 69 69 WNW 8 13 30.08 1019 10 16 0.00 0.00
1:56 am 01:56 Clear 54 12.2 44 6.7 69 69 WNW 9 15 30.10 1019 10 16 0.00 0.00
2:56 am 02:56 Clear 56 13.3 43 6.1 62 62 NW 10 17 30.12 1020 10 16 0.00 0.00
3:56 am 03:56 Clear 53 11.7 43 6.1 68 68 NW 9 15 30.14 1021 10 16 0.00 0.00
4:56 am 04:56 Clear 50 10 43 6.1 77 77 WNW 9 15 30.15 1021 10 16 0.00 0.00
5:56 am 05:56 Clear 49 9.4 43 6.1 80 80 NW 10 17 30.16 1022 10 16 0.00 0.00
6:56 am 06:56 Clear 49 9.4 43 6.1 80 80 WNW 9 15 30.19 1023 10 16 0.00 0.00
7:56 am 07:56 Sunny 48 8.9 43 6.1 83 83 NW 10 17 30.22 1023 10 16 0.00 0.00
8:56 am 08:56 Sunny 55 12.8 44 6.7 66 66 NW 10 17 30.24 1024 10 16 0.00 0.00
9:56 am 09:56 Sunny 62 16.7 45 7.2 53 53 WNW 10 17 30.24 1024 10 16 0.00 0.00
10:56 am 10:56 Sunny 69 20.6 43 6.1 39 39 NW 10 17 30.24 1024 10 16 0.00 0.00
11:56 am 11:56 Sunny 72 22.2 42 5.6 34 34 NW 10 17 30.23 1024 10 16 0.00 0.00
12:56 pm 12:56 Sunny 74 23.3 42 5.6 32 32 WNW 15 24 30.21 1023 10 16 0.00 0.00
1:56 pm 13:56 Mostly Cloudy 74 23.3 39 3.9 28 28 NNW 16 26 30.20 1023 10 16 0.00 0.00
2:56 pm 14:56 Partly Cloudy 76 24.4 40 4.4 27 27 NNW 15 24 30.17 1022 10 16 0.00 0.00
3:56 pm 15:56 Mostly Sunny 77 25 39 3.9 25 25 NNW 12 19 30.15 1021 10 16 0.00 0.00
4:56 pm 16:56 Mostly Sunny 77 25 39 3.9 25 25 NW 12 19 30.13 1020 10 16 0.00 0.00
5:56 pm 17:56 Sunny 76 24.4 39 3.9 26 26 NNW 9 15 30.13 1020 10 16 0.00 0.00
6:56 pm 18:56 Sunny 72 22.2 41 5 33 33 NNW 9 15 30.13 1020 10 16 0.00 0.00
7:56 pm 19:56 Clear 67 19.4 41 5 39 39 NNW 8 13 30.14 1021 10 16 0.00 0.00
8:56 pm 20:56 Clear 59 15 45 7.2 60 60 NW 7 11 30.16 1021 10 16 0.00 0.00
9:56 pm 21:56 Clear 57 13.9 43 6.1 59 59 NW 7 11 30.16 1022 10 16 0.00 0.00
10:56 pm 22:56 Clear 57 13.9 42 5.6 57 57 NW 6 9 30.18 1022 10 16 0.00 0.00
11:56 pm 23:56 Clear 51 10.6 42 5.6 71 71 NW 8 13 30.18 1022 10 16 0.00 0.00

Powered by AerisWeather